Weather History for Winchester, TN

Change the Weather History Date:

Thursday, March 21, 2013

  Actual Average (KTHA) Record (KTHA)
Temperature  
Mean Temperature 31 °F -  
Max Temperature 41 °F 62 °F 66 °F (2014)
Min Temperature 21 °F 39 °F 19 °F (2013)
Degree Days  
Heating Degree Days 34    
Moisture  
Dew Point 15 °F    
Average Humidity 53    
Maximum Humidity 86    
Minimum Humidity 36    
Precipitation  
Precipitation 0.00 in - - ()
Sea Level Pressure  
Sea Level Pressure 30.01 in    
Wind  
Wind Speed 7 mph (NNW)    
Max Wind Speed 16 mph    
Max Gust Speed -    
Visibility 10 miles    
Events      
Averages and records for this station are not official NWS values.
T = Trace of Precipitation, MM = Missing Value Source: NWS Daily Summary

Daily Weather History Graph

Daily Weather History Graph

Search for Another Location

Airport:

Trip Planner

Search our weather history database for the weather conditions in past years. The results will help you decide how hot, cold, wet, or windy it might be!

Date:

Astronomy

Mar. 21, 2013 Rise Set
Actual Time 7:46 AM EDT 7:57 PM EDT
Civil Twilight 7:20 AM EDT 8:22 PM EDT
Nautical Twilight 6:51 AM EDT 8:51 PM EDT
Astronomical Twilight 6:21 AM EDT 9:21 PM EDT
Moon 2:36 PM EDT (3/21) 3:56 AM EDT (3/21)
Length of Visible Light 13h 01m
Length of Day
12h 10m
Waxing Gibbous, 68% of the Moon is Illuminated
Mar 21
Waxing Gibbous
Mar 27
Full
Apr 3
Last Quarter
Apr 10
New
Apr 18
First Quarter

Hourly Weather History & Observations

Time (EDT) Temp. Windchill Dew Point Humidity Pressure Visibility Wind Dir Wind Speed Gust Speed Precip Events Conditions
12:15 AM 33.8 °F 27.7 °F 26.6 °F 75% 30.03 in 10.0 mi North 6.9 mph - N/A   Mostly Cloudy
12:35 AM 33.8 °F 27.7 °F 26.6 °F 75% 30.02 in 10.0 mi North 6.9 mph - N/A   Mostly Cloudy
12:55 AM 33.8 °F 27.7 °F 24.8 °F 70% 30.03 in 10.0 mi North 6.9 mph - N/A   Mostly Cloudy
1:35 AM 30.2 °F 21.3 °F 21.2 °F 69% 30.02 in 10.0 mi North 10.4 mph - N/A   Clear
2:15 AM 28.4 °F 18.0 °F 17.6 °F 64% 30.03 in 10.0 mi North 12.7 mph - N/A   Clear
2:35 AM 28.4 °F 18.0 °F 17.6 °F 64% 30.02 in 10.0 mi North 12.7 mph - N/A   Clear
2:55 AM 28.4 °F 20.4 °F 17.6 °F 64% 30.02 in 10.0 mi North 8.1 mph - N/A   Clear
3:15 AM 26.6 °F 17.5 °F 17.6 °F 69% 30.02 in 10.0 mi North 9.2 mph - N/A   Clear
3:35 AM 26.6 °F 19.1 °F 17.6 °F 69% 30.03 in 10.0 mi North 6.9 mph - N/A   Clear
3:55 AM 26.6 °F 16.8 °F 15.8 °F 64% 30.02 in 10.0 mi North 10.4 mph - N/A   Clear
4:15 AM 26.6 °F 14.3 °F 14.0 °F 59% 30.03 in 10.0 mi North 16.1 mph - N/A   Clear
4:35 AM 26.6 °F 16.8 °F 12.2 °F 55% 30.02 in 10.0 mi North 10.4 mph - N/A   Clear
4:55 AM 24.8 °F 16.9 °F 12.2 °F 59% 30.02 in 10.0 mi North 6.9 mph - N/A   Clear
5:15 AM 24.8 °F 17.9 °F 12.2 °F 59% 30.01 in 10.0 mi North 5.8 mph - N/A   Clear
5:35 AM 24.8 °F 17.9 °F 12.2 °F 59% 30.02 in 10.0 mi NNW 5.8 mph - N/A   Clear
5:55 AM 24.8 °F 20.5 °F 12.2 °F 59% 30.02 in 10.0 mi North 3.5 mph - N/A   Clear
6:15 AM 23.0 °F 14.7 °F 12.2 °F 63% 30.02 in 10.0 mi North 6.9 mph - N/A   Clear
6:35 AM 23.0 °F - 12.2 °F 63% 30.01 in 10.0 mi Calm Calm - N/A   Clear
6:55 AM 21.2 °F 14.9 °F 12.2 °F 68% 30.01 in 10.0 mi North 4.6 mph - N/A   Clear
7:15 AM 21.2 °F 13.6 °F 12.2 °F 68% 30.02 in 10.0 mi North 5.8 mph - N/A   Clear
7:35 AM 23.0 °F 15.8 °F 10.4 °F 59% 30.02 in 10.0 mi NNW 5.8 mph - N/A   Clear
7:55 AM 21.2 °F 14.9 °F 10.4 °F 63% 30.03 in 10.0 mi NNW 4.6 mph - N/A   Clear
8:15 AM 23.0 °F - 12.2 °F 63% 30.03 in 10.0 mi Calm Calm - N/A   Clear
8:35 AM 24.8 °F 19.1 °F 12.2 °F 59% 30.05 in 10.0 mi NW 4.6 mph - N/A   Clear
8:55 AM 24.8 °F 17.9 °F 10.4 °F 54% 30.05 in 10.0 mi NW 5.8 mph - N/A   Clear
9:15 AM 24.8 °F 17.9 °F 12.2 °F 59% 30.06 in 10.0 mi NNW 5.8 mph - N/A   Clear
9:35 AM 26.6 °F 22.6 °F 10.4 °F 51% 30.06 in 10.0 mi NW 3.5 mph - N/A   Clear
9:55 AM 26.6 °F 19.1 °F 10.4 °F 51% 30.06 in 10.0 mi Variable 6.9 mph - N/A   Clear
10:15 AM 28.4 °F 20.4 °F 10.4 °F 47% 30.07 in 10.0 mi North 8.1 mph - N/A   Clear
10:35 AM 28.4 °F 21.2 °F 10.4 °F 47% 30.08 in 10.0 mi North 6.9 mph - N/A   Clear
10:55 AM 28.4 °F 19.7 °F 10.4 °F 47% 30.08 in 10.0 mi WNW 9.2 mph - N/A   Clear
11:15 AM 30.2 °F 21.3 °F 10.4 °F 44% 30.08 in 10.0 mi WNW 10.4 mph - N/A   Clear
11:35 AM 30.2 °F 21.3 °F 12.2 °F 47% 30.07 in 10.0 mi North 10.4 mph - N/A   Clear
11:55 AM 30.2 °F 22.6 °F 10.4 °F 44% 30.07 in 10.0 mi NNW 8.1 mph - N/A   Clear
12:15 PM 32.0 °F 24.8 °F 12.2 °F 44% 30.06 in 10.0 mi North 8.1 mph - N/A   Clear
12:35 PM 33.8 °F 27.7 °F 12.2 °F 41% 30.05 in 10.0 mi NNW 6.9 mph - N/A   Clear
12:55 PM 33.8 °F 26.4 °F 12.2 °F 41% 30.05 in 10.0 mi NW 9.2 mph - N/A   Clear
1:15 PM 33.8 °F 27.7 °F 12.2 °F 41% 30.04 in 10.0 mi WNW 6.9 mph - N/A   Clear
1:35 PM 35.6 °F 29.9 °F 12.2 °F 38% 30.04 in 10.0 mi Variable 6.9 mph - N/A   Clear
1:55 PM 35.6 °F 29.2 °F 12.2 °F 38% 30.03 in 10.0 mi NW 8.1 mph - N/A   Clear
2:15 PM 35.6 °F 31.7 °F 12.2 °F 38% 30.03 in 10.0 mi WNW 4.6 mph - N/A   Clear
2:35 PM 37.4 °F 30.3 °F 12.2 °F 36% 30.03 in 10.0 mi NW 10.4 mph - N/A   Clear
2:55 PM 37.4 °F 31.4 °F 14.0 °F 38% 30.02 in 10.0 mi North 8.1 mph - N/A   Clear
3:15 PM 37.4 °F 33.8 °F 14.0 °F 38% 30.02 in 10.0 mi Variable 4.6 mph - N/A   Clear
3:35 PM 37.4 °F 31.4 °F 14.0 °F 38% 30.01 in 10.0 mi NW 8.1 mph - N/A   Clear
3:55 PM 39.2 °F 33.0 °F 14.0 °F 36% 29.99 in 10.0 mi NNW 9.2 mph - N/A   Clear
4:15 PM 39.2 °F 33.6 °F 14.0 °F 36% 29.99 in 10.0 mi WNW 8.1 mph - N/A   Clear
4:35 PM 39.2 °F 33.6 °F 15.8 °F 39% 29.99 in 10.0 mi NW 8.1 mph - N/A   Clear
4:55 PM 41.0 °F 35.2 °F 15.8 °F 36% 29.98 in 10.0 mi North 9.2 mph - N/A   Clear
5:15 PM 39.2 °F 33.0 °F 14.0 °F 36% 29.97 in 10.0 mi NNW 9.2 mph - N/A   Clear
5:35 PM 41.0 °F 35.8 °F 15.8 °F 36% 29.97 in 10.0 mi North 8.1 mph - N/A   Clear
5:55 PM 39.2 °F - 14.0 °F 36% 29.96 in 10.0 mi Calm Calm - N/A   Clear
6:15 PM 39.2 °F 35.0 °F 14.0 °F 36% 29.96 in 10.0 mi NW 5.8 mph - N/A   Clear
6:35 PM 39.2 °F 34.2 °F 14.0 °F 36% 29.95 in 10.0 mi NNE 6.9 mph - N/A   Clear
6:55 PM 39.2 °F 35.9 °F 15.8 °F 39% 29.95 in 10.0 mi Variable 4.6 mph - N/A   Clear
7:15 PM 39.2 °F 35.0 °F 14.0 °F 36% 29.95 in 10.0 mi North 5.8 mph - N/A   Clear
7:35 PM 37.4 °F 34.9 °F 15.8 °F 41% 29.96 in 10.0 mi NNW 3.5 mph - N/A   Clear
7:55 PM 37.4 °F 33.8 °F 17.6 °F 45% 29.96 in 10.0 mi North 4.6 mph - N/A   Clear
8:15 PM 37.4 °F - 14.0 °F 38% 29.96 in 10.0 mi Calm Calm - N/A   Clear
8:35 PM 37.4 °F 34.9 °F 15.8 °F 41% 29.97 in 10.0 mi NNW 3.5 mph - N/A   Clear
8:55 PM 33.8 °F - 21.2 °F 60% 29.97 in 10.0 mi Calm Calm - N/A   Clear
9:15 PM 33.8 °F - 21.2 °F 60% 29.97 in 10.0 mi Calm Calm - N/A   Clear
9:35 PM 35.6 °F - 17.6 °F 48% 29.98 in 10.0 mi Calm Calm - N/A   Clear
9:55 PM 30.2 °F - 21.2 °F 69% 29.99 in 10.0 mi Calm Calm - N/A   Clear
10:15 PM 33.8 °F - 21.2 °F 60% 29.99 in 10.0 mi Calm Calm - N/A   Clear
10:35 PM 32.0 °F - 21.2 °F 64% 30.00 in 10.0 mi Calm Calm - N/A   Clear
10:55 PM 32.0 °F - 23.0 °F 69% 30.00 in 10.0 mi Calm Calm - N/A   Clear
11:15 PM 28.4 °F - 24.8 °F 86% 30.00 in 10.0 mi Calm Calm - N/A   Clear
11:35 PM 28.4 °F - 24.8 °F 86% 30.00 in 10.0 mi Calm Calm - N/A   Clear
11:55 PM 30.2 °F - 24.8 °F 80% 29.99 in 10.0 mi Calm Calm - N/A   Partly Cloudy